• In Belarus
  • List of Countries
  • For 7 days
  • Water Temperature
  • Weather Map
  • Weather Widgets
  • user-avatar
    Login

    Hourly Weather Starokorotkino

    Today, 1 June, Monday

    Time Temperature Precipitation Wind Pressure Humidity
    00:00 +7°C° 0 mm 2 mps 748 mmHg 82%
    01:00 +7°C° 0 mm 2 mps 749 mmHg 83%
    02:00 +6°C° 0 mm 2 mps 749 mmHg 85%
    03:00 +6°C° 0 mm 2 mps 749 mmHg 87%
    04:00 +7°C° 0 mm 3 mps 749 mmHg 81%
    05:00 +7°C° 0 mm 3 mps 749 mmHg 76%
    06:00 +9°C° 0 mm 2 mps 749 mmHg 72%
    07:00 +10°C° 0 mm 2 mps 749 mmHg 66%
    08:00 +11°C° 0 mm 3 mps 750 mmHg 59%
    09:00 +13°C° 0 mm 3 mps 750 mmHg 52%
    10:00 +14°C° 0 mm 3 mps 750 mmHg 48%
    11:00 +16°C° 0 mm 3 mps 750 mmHg 45%
    12:00 +16°C° 0 mm 3 mps 750 mmHg 43%
    13:00 +17°C° 0 mm 3 mps 750 mmHg 41%
    14:00 +17°C° 0 mm 3 mps 750 mmHg 40%
    15:00 +18°C° 0 mm 2 mps 750 mmHg 39%
    16:00 +17°C° 0 mm 2 mps 750 mmHg 43%
    17:00 +16°C° 0 mm 2 mps 750 mmHg 48%
    18:00 +16°C° 0 mm 1 mps 751 mmHg 53%
    19:00 +14°C° 0.1 mm 1 mps 750 mmHg 60%
    20:00 +13°C° 0.1 mm 1 mps 750 mmHg 66%
    21:00 +12°C° 0.1 mm 1 mps 750 mmHg 73%
    22:00 +11°C° 1.3 mm 1 mps 749 mmHg 80%
    23:00 +10°C° 1.3 mm 1 mps 749 mmHg 88%

    Tomorrow, 2 June, Tuesday

    Time Temperature Precipitation Wind Pressure Humidity
    00:00 +10°C° 1.3 mm 1 mps 749 mmHg 96%
    01:00 +8°C° 0.7 mm 2 mps 748 mmHg 95%
    02:00 +8°C° 0.7 mm 3 mps 748 mmHg 94%
    03:00 +8°C° 0.7 mm 3 mps 747 mmHg 93%
    04:00 +8°C° 0.6 mm 3 mps 746 mmHg 94%
    05:00 +8°C° 0.6 mm 3 mps 746 mmHg 94%
    06:00 +8°C° 0.6 mm 3 mps 746 mmHg 95%
    07:00 +8°C° 0.5 mm 3 mps 745 mmHg 95%
    08:00 +9°C° 0.5 mm 3 mps 745 mmHg 95%
    09:00 +9°C° 0.5 mm 3 mps 745 mmHg 94%
    10:00 +9°C° 0.7 mm 3 mps 745 mmHg 95%
    11:00 +9°C° 0.7 mm 3 mps 745 mmHg 95%
    12:00 +9°C° 0.7 mm 2 mps 745 mmHg 95%
    13:00 +9°C° 0.7 mm 2 mps 745 mmHg 95%
    14:00 +9°C° 0.7 mm 2 mps 745 mmHg 95%
    15:00 +9°C° 0.7 mm 2 mps 745 mmHg 95%
    16:00 +9°C° 0.4 mm 2 mps 746 mmHg 96%
    17:00 +9°C° 0.4 mm 2 mps 746 mmHg 96%
    18:00 +9°C° 0.4 mm 2 mps 747 mmHg 96%
    19:00 +9°C° 0.4 mm 2 mps 747 mmHg 96%
    20:00 +9°C° 0.4 mm 2 mps 747 mmHg 97%
    21:00 +8°C° 0.4 mm 3 mps 747 mmHg 97%
    22:00 +8°C° 0.4 mm 3 mps 747 mmHg 97%
    23:00 +8°C° 0.4 mm 3 mps 747 mmHg 97%

    Day after tomorrow, 3 June, Wednesday

    Time Temperature Precipitation Wind Pressure Humidity
    00:00 +8°C° 0.4 mm 3 mps 748 mmHg 97%
    01:00 +8°C° 0.6 mm 3 mps 748 mmHg 97%
    02:00 +6°C° 0.6 mm 4 mps 748 mmHg 97%
    03:00 +6°C° 0.6 mm 4 mps 748 mmHg 96%
    04:00 +6°C° 0.3 mm 4 mps 748 mmHg 95%
    05:00 +6°C° 0.3 mm 4 mps 749 mmHg 95%
    06:00 +6°C° 0.3 mm 5 mps 749 mmHg 94%
    07:00 +6°C° 0.1 mm 5 mps 750 mmHg 90%
    08:00 +6°C° 0.1 mm 5 mps 750 mmHg 85%
    09:00 +7°C° 0.1 mm 5 mps 751 mmHg 81%
    10:00 +8°C° 0.1 mm 5 mps 751 mmHg 71%
    11:00 +10°C° 0.1 mm 5 mps 751 mmHg 61%
    12:00 +12°C° 0.1 mm 5 mps 751 mmHg 51%
    13:00 +12°C° 0.1 mm 5 mps 751 mmHg 50%
    14:00 +13°C° 0.1 mm 5 mps 751 mmHg 50%
    15:00 +13°C° 0.1 mm 5 mps 752 mmHg 49%
    16:00 +13°C° 0.1 mm 4 mps 752 mmHg 49%
    17:00 +13°C° 0.1 mm 4 mps 752 mmHg 49%
    18:00 +13°C° 0.1 mm 3 mps 752 mmHg 49%
    19:00 +11°C° 0.1 mm 3 mps 752 mmHg 59%
    20:00 +9°C° 0.1 mm 2 mps 752 mmHg 69%
    21:00 +7°C° 0.1 mm 2 mps 752 mmHg 79%
    22:00 +6°C° 0 mm 2 mps 752 mmHg 82%
    23:00 +6°C° 0 mm 2 mps 753 mmHg 85%

    4 June, Thursday

    Time Temperature Precipitation Wind Pressure Humidity
    00:00 +5°C° 0 mm 2 mps 753 mmHg 88%
    01:00 +4°C° 0 mm 2 mps 753 mmHg 89%
    02:00 +3°C° 0 mm 2 mps 752 mmHg 90%
    03:00 +3°C° 0 mm 2 mps 752 mmHg 90%
    04:00 +4°C° 0 mm 2 mps 753 mmHg 87%
    05:00 +4°C° 0 mm 2 mps 753 mmHg 85%
    06:00 +5°C° 0 mm 2 mps 753 mmHg 82%
    07:00 +7°C° 0 mm 2 mps 753 mmHg 74%
    08:00 +9°C° 0 mm 2 mps 753 mmHg 66%
    09:00 +12°C° 0 mm 2 mps 752 mmHg 58%
    10:00 +13°C° 0 mm 2 mps 752 mmHg 53%
    11:00 +14°C° 0 mm 1 mps 752 mmHg 48%
    12:00 +16°C° 0 mm 1 mps 752 mmHg 43%
    13:00 +15°C° 0.1 mm 1 mps 752 mmHg 44%
    14:00 +15°C° 0.1 mm 2 mps 752 mmHg 45%
    15:00 +15°C° 0.1 mm 2 mps 752 mmHg 46%
    16:00 +15°C° 0 mm 2 mps 752 mmHg 47%
    17:00 +15°C° 0 mm 2 mps 752 mmHg 49%
    18:00 +14°C° 0 mm 3 mps 752 mmHg 50%
    19:00 +13°C° 0 mm 2 mps 752 mmHg 59%
    20:00 +10°C° 0 mm 2 mps 752 mmHg 68%
    21:00 +9°C° 0 mm 2 mps 752 mmHg 78%
    22:00 +8°C° 0 mm 2 mps 752 mmHg 84%
    23:00 +7°C° 0 mm 2 mps 752 mmHg 90%

    5 June, Friday

    Time Temperature Precipitation Wind Pressure Humidity
    00:00 +6°C° 0 mm 2 mps 752 mmHg 96%
    01:00 +5°C° 0 mm 2 mps 752 mmHg 96%
    02:00 +5°C° 0 mm 2 mps 752 mmHg 96%
    03:00 +5°C° 0 mm 2 mps 752 mmHg 96%
    04:00 +6°C° 0 mm 2 mps 752 mmHg 93%
    05:00 +5°C° 0 mm 3 mps 752 mmHg 89%
    06:00 +7°C° 0 mm 3 mps 752 mmHg 86%
    07:00 +9°C° 0 mm 3 mps 752 mmHg 79%
    08:00 +11°C° 0 mm 3 mps 752 mmHg 72%
    09:00 +13°C° 0 mm 4 mps 751 mmHg 65%
    10:00 +14°C° 0 mm 4 mps 751 mmHg 60%
    11:00 +15°C° 0 mm 4 mps 751 mmHg 55%
    12:00 +15°C° 0 mm 5 mps 752 mmHg 50%
    13:00 +15°C° 0 mm 5 mps 751 mmHg 54%
    14:00 +15°C° 0 mm 5 mps 751 mmHg 57%
    15:00 +15°C° 0 mm 6 mps 751 mmHg 61%
    16:00 +13°C° 2.2 mm 5 mps 751 mmHg 72%
    17:00 +12°C° 2.2 mm 4 mps 751 mmHg 84%
    18:00 +11°C° 2.2 mm 3 mps 750 mmHg 96%
    19:00 +11°C° 0.2 mm 3 mps 750 mmHg 93%
    20:00 +12°C° 0.2 mm 3 mps 750 mmHg 90%
    21:00 +12°C° 0.2 mm 3 mps 750 mmHg 88%
    22:00 +12°C° 0 mm 4 mps 750 mmHg 87%
    23:00 +12°C° 0 mm 4 mps 750 mmHg 86%

    6 June, Saturday

    Time Temperature Precipitation Wind Pressure Humidity
    00:00 +12°C° 0 mm 4 mps 750 mmHg 85%
    01:00 +12°C° 0 mm 4 mps 750 mmHg 86%
    02:00 +12°C° 0 mm 4 mps 750 mmHg 86%
    03:00 +11°C° 0 mm 3 mps 751 mmHg 87%
    04:00 +12°C° 0 mm 4 mps 751 mmHg 84%
    05:00 +12°C° 0 mm 4 mps 752 mmHg 81%
    06:00 +12°C° 0 mm 4 mps 752 mmHg 78%
    07:00 +14°C° 0 mm 4 mps 752 mmHg 69%
    08:00 +15°C° 0 mm 5 mps 753 mmHg 60%
    09:00 +16°C° 0 mm 5 mps 753 mmHg 50%
    10:00 +17°C° 0 mm 5 mps 753 mmHg 47%
    11:00 +19°C° 0 mm 5 mps 753 mmHg 43%
    12:00 +19°C° 0 mm 5 mps 754 mmHg 39%
    13:00 +20°C° 0 mm 5 mps 754 mmHg 38%
    14:00 +20°C° 0 mm 5 mps 754 mmHg 37%
    15:00 +21°C° 0 mm 5 mps 754 mmHg 36%
    16:00 +20°C° 0 mm 5 mps 754 mmHg 38%
    17:00 +20°C° 0 mm 5 mps 754 mmHg 40%
    18:00 +20°C° 0 mm 4 mps 754 mmHg 42%
    19:00 +18°C° 0 mm 4 mps 754 mmHg 49%
    20:00 +16°C° 0 mm 3 mps 754 mmHg 56%
    21:00 +14°C° 0 mm 2 mps 754 mmHg 63%
    22:00 +13°C° 0 mm 2 mps 755 mmHg 65%
    23:00 +12°C° 0 mm 2 mps 755 mmHg 68%
    Show more